Regional Weather Roundup
Issued by NWS

Home | Current Version | Previous Version | Graphics & Text | Print | Product List | Glossary On
Versions: 1 2 3 4 5 6 7 8 9 10 11 12 13 14 15 16 17 18 19 20 21 22 23 24 25 26 27 28 29 30 31 32 33 34 35 36 37 38 39 40 41 42 43 44 45 46 47 48 49 50
000
ASUS43 KFSD 272010
RWRSD

WEATHER ROUNDUP FOR SOUTH DAKOTA
NATIONAL WEATHER SERVICE SIOUX FALLS SD
200 PM CST FRI FEB 27 2015

NOTE: "FAIR" INDICATES FEW OR NO CLOUDS BELOW 12,000 FEET WITH NO
SIGNIFICANT WEATHER AND/OR OBSTRUCTIONS TO VISIBILITY.


SDZ001>005-009-010-012>017-272100-
NORTHWEST AND NORTH CENTRAL SOUTH DAKOTA

CITY           SKY/WX    TMP DP  RH WIND       PRES   REMARKS
BUFFALO          N/A     25  12  58 S14G21    29.97F WCI  13
FAITH            N/A     24  -1  33 S22G28    30.14F WCI   9
MOBRIDGE       SUNNY     19   4  51 S12       30.27F WCI   7
$$

SDZ012>016-024>037-041>051-057-063-072>074-272100-
SOUTHWEST AND SOUTH CENTRAL SOUTH DAKOTA

CITY           SKY/WX    TMP DP  RH WIND       PRES   REMARKS
RAPID CTY ARPT PTSUNNY   22  11  62 S22G32    30.07F WCI   6
PIERRE         SUNNY     24  -2  32 S13G21    30.30F WCI  12
CUSTER         LGT SNOW  11   4  73 S9G16     29.89F WCI  -2
ELLSWORTH AFB  MOSUNNY   21   9  59 S26G32    30.04F WCI   4
PHILIP         SUNNY     28   1  31 S15G23    30.20F WCI  16
PINE RIDGE     PTSUNNY   26   8  46 S24G33    30.10F WCI  11
WINNER         FAIR      24  -1  33 S12       30.31F WCI  13
$$

SDZ004>011-016>023-039-040-272100-
NORTHEAST SOUTH DAKOTA

CITY           SKY/WX    TMP DP  RH WIND       PRES   REMARKS
ABERDEEN       SUNNY     14   1  56 S10       30.42F WCI   1
WATERTOWN      SUNNY     10   0  63 SW8       30.40F WCI  -2
SISSETON         N/A     14  -1  51 W8        30.44F WCI   3
$$

SDZ017-020-022-023-036>040-048>070-272100-
SOUTHEAST SOUTH DAKOTA

CITY           SKY/WX    TMP DP  RH WIND       PRES   REMARKS
SIOUX FALLS    SUNNY     13   0  56 VRB5      30.47F WCI   5
HURON          SUNNY     14   3  61 SE7       30.43F WCI   4
CHAMBERLAIN    SUNNY     22  -1  35 S12G21    30.36F WCI  11
MITCHELL       SUNNY     20  -2  38 S7        30.44F WCI  11
YANKTON        SUNNY     18   0  45 S7        30.48F WCI   8
$$

ABBREVIATIONS USED IN REMARKS
   TC - TEMPERATURE IN CELSIUS
  WCI - WIND CHILL INDEX
   HX - HEAT INDEX
  VSB - VISIBILITY




USA.gov is the U.S. government's official web portal to all federal, state and local government web resources and services.